Content
SEND FEEDBACK

Daily
Averages
Monthly
Summary
United States of America

WILMINGTON, NORTH CAROLINA


Home > North America > United States > North Carolina
Elevation: 21 meters     Latitude: 34 16N     Longitude: 077 54W

WEATHER
 
SELECT A DAY
Number of Records: 208,565;   Date Range: 1/1/95 - 7/7/14
 
SHARE

PRINT THIS DATA

[ ← Previous Day ]
WEATHER ALMANAC - 11 FEBRUARY, 2013
[ Next Day → ]
[ °F ]   °C
Weather ElementAverageHighLow
Temperature17.2 °C19.4 °C (2:53 pm)11.7 °C (1:53 am)
Dewpoint14.7 °C16.1 °C (10:53 am)10 °C (1:53 am)
Humidity85.5 %94 % (10:15 am)76 % (2:53 pm)
Barometer1018.6 hPa1025.1 hPa (1:53 am)1015.6 hPa (9:53 pm)
Wind Speed22.4 km/h37 km/h (3:12 pm)
Wind Gust57.5 km/h (3:12 pm)
Weather ElementAverage
Visibility15.4 km
Wind DirectionSSW (212.5 °)

Weather ElementTotal
Precipitation3.81 mm
Heating Degree Days2.8 (Base 18.3)
Growing Degree Days5.6 (Base 10)
Averaged from 32 records on 11 February, 2013
WEATHER CONDITIONS BREAKOUT
WIND DIRECTION BREAKOUT
WEATHER BY HOUR - 11 FEBRUARY, 2013
[ °F ]   °C
Local TimeTemperatureDewpointHumidityBarometerVisibilityWind DirectionWind SpeedGust SpeedPrecipitationEventsConditions
1:53 AM11.7 °C10 °C89 %1025.1 hPa16.1 kmSE (130°)5.6 km/h0 mmRainLight Rain
2:53 AM14.4 °C11.1 °C81 %1023 hPa16.1 kmSSE (160°)20.4 km/h0.25 mmRainLight Rain
3:53 AM15.6 °C11.7 °C78 %1021.7 hPa16.1 kmSouth (180°)20.4 km/h35.2 km/h0.25 mmRainLight Rain
4:53 AM15.6 °C12.2 °C80 %1021.3 hPa16.1 kmSouth (170°)20.4 km/h0.25 mmRainLight Rain
5:53 AM15.6 °C12.8 °C83 %1020.7 hPa16.1 kmSouth (180°)31.5 km/h37 km/h0.51 mmMostly Cloudy
6:53 AM16.7 °C13.3 °C80 %1021 hPa16.1 kmSouth (190°)29.6 km/h40.7 km/h0 mmOvercast
7:53 AM17.2 °C13.9 °C81 %1021 hPa16.1 kmSouth (190°)22.2 km/h33.3 km/h0.25 mmRainLight Rain
8:53 AM17.2 °C14.4 °C84 %1021 hPa16.1 kmSSW (200°)20.4 km/h35.2 km/h0 mmRainLight Rain
9:53 AM17.2 °C15 °C87 %1020.7 hPa16.1 kmSSW (200°)24.1 km/h33.3 km/h0.25 mmRainLight Rain
10:15 AM17 °C16 °C94 %1020.7 hPa8 kmSSW (200°)24.1 km/h33.3 km/h0 mmRainLight Rain
10:46 AM17 °C16 °C94 %1020.7 hPa8 kmSSW (210°)24.1 km/h33.3 km/h0.51 mmRainLight Rain
10:53 AM17.8 °C16.1 °C90 %1020.3 hPa9.7 kmSSW (210°)24.1 km/h35.2 km/h0.51 mmRainLight Rain
11:35 AM18 °C16 °C88 %1020 hPa16.1 kmSW (220°)22.2 km/h35.2 km/h0 mmRainLight Rain
11:53 AM17.8 °C16.1 °C90 %1019.6 hPa16.1 kmSSW (210°)18.5 km/h0.25 mmRainLight Rain
12:53 PM18.3 °C16.1 °C87 %1018.6 hPa16.1 kmSW (220°)20.4 km/h42.6 km/h0 mmOvercast
1:53 PM17.8 °C15.6 °C87 %1017.3 hPa16.1 kmSW (220°)27.8 km/h42.6 km/h0.25 mmRainLight Rain
2:02 PM18 °C16 °C88 %1016.9 hPa16.1 kmSSW (200°)33.3 km/h48.1 km/h0 mmRainLight Rain
2:53 PM19.4 °C15 °C76 %1017.3 hPa16.1 kmSW (230°)33.3 km/h42.6 km/h0 mmOvercast
3:12 PM19 °C15 °C78 %1017.3 hPa16.1 kmSW (230°)37 km/h57.5 km/hOvercast
3:53 PM18.9 °C15.6 °C81 %1017.3 hPa16.1 kmSW (230°)25.9 km/h37 km/hOvercast
4:03 PM19 °C16 °C83 %1016.9 hPa16.1 kmSW (230°)24.1 km/h37 km/hOvercast
4:53 PM18.3 °C15.6 °C84 %1016.6 hPa16.1 kmSW (220°)14.8 km/hPartly Cloudy
5:46 PM18 °C16 °C88 %1016.6 hPa16.1 kmSSW (210°)20.4 km/hScattered Clouds
5:53 PM17.8 °C15.6 °C87 %1016.6 hPa16.1 kmSSW (200°)20.4 km/h33.3 km/hPartly Cloudy
6:53 PM17.8 °C15.6 °C87 %1016.9 hPa16.1 kmSW (230°)20.4 km/hMostly Cloudy
7:53 PM17.2 °C15.6 °C90 %1017.3 hPa16.1 kmSW (220°)14.8 km/h0 mmRainLight Rain
8:53 PM17.2 °C15.6 °C90 %1015.9 hPa16.1 kmSSW (200°)25.9 km/h0.25 mmMostly Cloudy
9:53 PM16.7 °C15 °C90 %1015.6 hPa16.1 kmSW (230°)14.8 km/hScattered Clouds
10:53 PM16.7 °C14.4 °C86 %1016.3 hPa16.1 kmWest (280°)20.4 km/h0 mmRainLight Rain
11:00 PM17 °C14 °C82 %1016.6 hPa16.1 kmWNW (290°)16.7 km/h0 mmRainLight Rain
11:17 PM17 °C15 °C88 %1015.9 hPa16.1 kmWest (270°)18.5 km/h0 mmOvercast
11:53 PM16.7 °C14.4 °C86 %1016.3 hPa16.1 kmWSW (240°)20.4 km/h0.25 mmRainLight Rain
Hourly data recorded from KILM, located 0 kilometers away from Wilmington, North Carolina







STORIES FROM OUR PARTNERS